Find OTB

NORAD ID: 44341 Int'l Des: 2019-036 Owner: GACO Country: US operational
LEOCIRCULAR

实时位置

正在加载3D地球...

关于 OTB

正在加载描述...

即将过境

Passes for default location (London). Set your location on the main map for personalized predictions.

高度历史

Loading altitude history...

两行轨道根数

1 44341U 19036C 26129.35768411 .00000992 00000-0 16826-3 0 9996
2 44341 23.9958 226.2949 0010629 299.6148 60.3285 14.57140089365709
Epoch: May 9, 2026 • Age: 11 hours

当前状态

高度 703.7 km
速度 7.51 km/s
星下点 -7.86°S, 96.57°W
发射日期 Jun 25, 2019
运行时间 6.8 years
类型 other

技术详情

分类 Payload
质量 100.00 kg
干质量 100.00 kg
总质量 100.00 kg
长度 1.00 m
直径 0.60 m
跨度 3.00 m
形状 Box + 4 Pan
制造商 GACO
平台类型 SSTL-150
阶段状态 In Orbit
所有者/国家 GACO/US

Most Searched